Year,Month,Day,Hour,Minute,Value (Times are PST for temperature in C)
2009,01,22,00,00,-3.50
2009,01,22,00,01,-3.50
2009,01,22,00,02,-3.60
2009,01,22,00,03,-3.50
2009,01,22,00,04,-3.60
2009,01,22,00,05,-3.60
2009,01,22,00,06,-3.60
2009,01,22,00,07,-3.60
2009,01,22,00,08,-3.60
2009,01,22,00,09,-3.60
2009,01,22,00,10,-3.60
2009,01,22,00,11,-3.60
2009,01,22,00,12,-3.60
2009,01,22,00,13,-3.60
2009,01,22,00,14,-3.60
2009,01,22,00,15,-3.60
2009,01,22,00,16,-3.60
2009,01,22,00,17,-3.70
2009,01,22,00,18,-3.70
2009,01,22,00,19,-3.70
2009,01,22,00,20,-3.70
2009,01,22,00,21,-3.70
2009,01,22,00,22,-3.70
2009,01,22,00,23,-3.70
2009,01,22,00,24,-3.70
2009,01,22,00,25,-3.70
2009,01,22,00,26,-3.70
2009,01,22,00,27,-3.70
2009,01,22,00,28,-3.80
2009,01,22,00,29,-3.80
2009,01,22,00,30,-3.80
2009,01,22,00,31,-3.70
2009,01,22,00,32,-3.80
2009,01,22,00,33,-3.80
2009,01,22,00,34,-3.80
2009,01,22,00,35,-3.80
2009,01,22,00,36,-3.80
2009,01,22,00,37,-3.80
2009,01,22,00,38,-3.80
2009,01,22,00,39,-3.80
2009,01,22,00,40,-3.80
2009,01,22,00,41,-3.80
2009,01,22,00,42,-3.80
2009,01,22,00,43,-3.80
2009,01,22,00,44,-3.80
2009,01,22,00,45,-3.80
2009,01,22,00,46,-3.80
2009,01,22,00,47,-3.80
2009,01,22,00,48,-3.80
2009,01,22,00,49,-3.90
2009,01,22,00,50,-3.90
2009,01,22,00,51,-3.90
2009,01,22,00,52,-3.90
2009,01,22,00,53,-3.80
2009,01,22,00,54,-3.80
2009,01,22,00,55,-3.80
2009,01,22,00,56,-3.80
2009,01,22,00,57,-3.80
2009,01,22,00,58,-3.80
2009,01,22,00,59,-3.80
2009,01,22,01,00,-3.80
2009,01,22,01,01,-3.80
2009,01,22,01,02,-3.80
2009,01,22,01,03,-3.80
2009,01,22,01,04,-3.80
2009,01,22,01,05,-3.80
2009,01,22,01,06,-3.80
2009,01,22,01,07,-3.80
2009,01,22,01,08,-3.80
2009,01,22,01,09,-3.80
2009,01,22,01,10,-3.80
2009,01,22,01,11,-3.80
2009,01,22,01,12,-3.90
2009,01,22,01,13,-3.90
2009,01,22,01,14,-3.90
2009,01,22,01,15,-3.90
2009,01,22,01,16,-3.90
2009,01,22,01,17,-3.90
2009,01,22,01,18,-3.80
2009,01,22,01,19,-3.80
2009,01,22,01,20,-3.80
2009,01,22,01,21,-3.80
2009,01,22,01,22,-3.80
2009,01,22,01,23,-3.80
2009,01,22,01,24,-3.80
2009,01,22,01,25,-3.80
2009,01,22,01,26,-3.80
2009,01,22,01,27,-3.80
2009,01,22,01,28,-3.80
2009,01,22,01,29,-3.80
2009,01,22,01,30,-3.80
2009,01,22,01,31,-3.80
2009,01,22,01,32,-3.80
2009,01,22,01,33,-3.80
2009,01,22,01,34,-3.80
2009,01,22,01,35,-3.80
2009,01,22,01,36,-3.80
2009,01,22,01,37,-3.80
2009,01,22,01,38,-3.80
2009,01,22,01,39,-3.80
2009,01,22,01,40,-3.80
2009,01,22,01,41,-3.80
2009,01,22,01,42,-3.80
2009,01,22,01,43,-3.80
2009,01,22,01,44,-3.80
2009,01,22,01,45,-3.80
2009,01,22,01,46,-3.80
2009,01,22,01,47,-3.80
2009,01,22,01,48,-3.80
2009,01,22,01,49,-3.80
2009,01,22,01,50,-3.80
2009,01,22,01,51,-3.90
2009,01,22,01,52,-3.90
2009,01,22,01,53,-3.90
2009,01,22,01,54,-3.90
2009,01,22,01,55,-3.90
2009,01,22,01,56,-3.90
2009,01,22,01,57,-3.90
2009,01,22,01,58,-3.90
2009,01,22,01,59,-3.90
2009,01,22,02,00,-3.90
2009,01,22,02,01,-3.90
2009,01,22,02,02,-3.90
2009,01,22,02,03,-3.90
2009,01,22,02,04,-3.90
2009,01,22,02,05,-3.90
2009,01,22,02,06,-3.90
2009,01,22,02,07,-3.90
2009,01,22,02,08,-3.90
2009,01,22,02,09,-3.90
2009,01,22,02,10,-3.90
2009,01,22,02,11,-3.90
2009,01,22,02,12,-3.90
2009,01,22,02,13,-3.90
2009,01,22,02,14,-3.90
2009,01,22,02,15,-3.90
2009,01,22,02,16,-3.90
2009,01,22,02,17,-3.90
2009,01,22,02,18,-3.90
2009,01,22,02,19,-3.90
2009,01,22,02,20,-3.90
2009,01,22,02,21,-3.90
2009,01,22,02,22,-3.90
2009,01,22,02,23,-3.90
2009,01,22,02,24,-3.90
2009,01,22,02,25,-3.90
2009,01,22,02,26,-3.90
2009,01,22,02,27,-3.90
2009,01,22,02,28,-3.90
2009,01,22,02,29,-3.90
2009,01,22,02,30,-3.90
2009,01,22,02,31,-3.90
2009,01,22,02,32,-3.90
2009,01,22,02,33,-3.90
2009,01,22,02,34,-3.90
2009,01,22,02,35,-3.90
2009,01,22,02,36,-3.90
2009,01,22,02,37,-3.90
2009,01,22,02,38,-3.90
2009,01,22,02,39,-4.00
2009,01,22,02,40,-4.00
2009,01,22,02,41,-4.00
2009,01,22,02,42,-4.00
2009,01,22,02,43,-4.00
2009,01,22,02,44,-4.00
2009,01,22,02,45,-4.00
2009,01,22,02,46,-4.00
2009,01,22,02,47,-4.10
2009,01,22,02,48,-4.10
2009,01,22,02,49,-4.10
2009,01,22,02,50,-4.10
2009,01,22,02,51,-4.10
2009,01,22,02,52,-4.10
2009,01,22,02,53,-4.10
2009,01,22,02,54,-4.10
2009,01,22,02,55,-4.10
2009,01,22,02,56,-4.10
2009,01,22,02,57,-4.10
2009,01,22,02,58,-4.10
2009,01,22,02,59,-4.10
2009,01,22,03,00,-4.10
2009,01,22,03,01,-4.10
2009,01,22,03,02,-4.10
2009,01,22,03,03,-4.10
2009,01,22,03,04,-4.10
2009,01,22,03,05,-4.10
2009,01,22,03,06,-4.10
2009,01,22,03,07,-4.10
2009,01,22,03,08,-4.10
2009,01,22,03,09,-4.20
2009,01,22,03,10,-4.20
2009,01,22,03,11,-4.20
2009,01,22,03,12,-4.20
2009,01,22,03,13,-4.20
2009,01,22,03,14,-4.20
2009,01,22,03,15,-4.20
2009,01,22,03,16,-4.20
2009,01,22,03,17,-4.20
2009,01,22,03,18,-4.20
2009,01,22,03,19,-4.20
2009,01,22,03,20,-4.20
2009,01,22,03,21,-4.20
2009,01,22,03,22,-4.20
2009,01,22,03,23,-4.20
2009,01,22,03,24,-4.20
2009,01,22,03,25,-4.20
2009,01,22,03,26,-4.20
2009,01,22,03,27,-4.20
2009,01,22,03,28,-4.20
2009,01,22,03,29,-4.20
2009,01,22,03,30,-4.20
2009,01,22,03,31,-4.20
2009,01,22,03,32,-4.20
2009,01,22,03,33,-4.20
2009,01,22,03,34,-4.20
2009,01,22,03,35,-4.20
2009,01,22,03,36,-4.20
2009,01,22,03,37,-4.20
2009,01,22,03,38,-4.20
2009,01,22,03,39,-4.20
2009,01,22,03,40,-4.20
2009,01,22,03,41,-4.20
2009,01,22,03,42,-4.20
2009,01,22,03,43,-4.20
2009,01,22,03,44,-4.20
2009,01,22,03,45,-4.20
2009,01,22,03,46,-4.20
2009,01,22,03,47,-4.20
2009,01,22,03,48,-4.20
2009,01,22,03,49,-4.30
2009,01,22,03,50,-4.30
2009,01,22,03,51,-4.30
2009,01,22,03,52,-4.30
2009,01,22,03,53,-4.30
2009,01,22,03,54,-4.30
2009,01,22,03,55,-4.30
2009,01,22,03,56,-4.30
2009,01,22,03,57,-4.30
2009,01,22,03,58,-4.30
2009,01,22,03,59,-4.30
2009,01,22,04,00,-4.30
2009,01,22,04,01,-4.30
2009,01,22,04,02,-4.30
2009,01,22,04,03,-4.30
2009,01,22,04,04,-4.30
2009,01,22,04,05,-4.30
2009,01,22,04,06,-4.40
2009,01,22,04,07,-4.40
2009,01,22,04,08,-4.40
2009,01,22,04,09,-4.40
2009,01,22,04,10,-4.40
2009,01,22,04,11,-4.40
2009,01,22,04,12,-4.40
2009,01,22,04,13,-4.40
2009,01,22,04,14,-4.40
2009,01,22,04,15,-4.40
2009,01,22,04,16,-4.40
2009,01,22,04,17,-4.40
2009,01,22,04,18,-4.40
2009,01,22,04,19,-4.40
2009,01,22,04,20,-4.40
2009,01,22,04,21,-4.40
2009,01,22,04,22,-4.40
2009,01,22,04,23,-4.50
2009,01,22,04,24,-4.50
2009,01,22,04,25,-4.50
2009,01,22,04,26,-4.50
2009,01,22,04,27,-4.50
2009,01,22,04,28,-4.50
2009,01,22,04,29,-4.50
2009,01,22,04,30,-4.50
2009,01,22,04,31,-4.50
2009,01,22,04,32,-4.50
2009,01,22,04,33,-4.50
2009,01,22,04,34,-4.50
2009,01,22,04,35,-4.50
2009,01,22,04,36,-4.50
2009,01,22,04,37,-4.50
2009,01,22,04,38,-4.50
2009,01,22,04,39,-4.40
2009,01,22,04,40,-4.40
2009,01,22,04,41,-4.40
2009,01,22,04,42,-4.40
2009,01,22,04,43,-4.40
2009,01,22,04,44,-4.40
2009,01,22,04,45,-4.40
2009,01,22,04,46,-4.40
2009,01,22,04,47,-4.40
2009,01,22,04,48,-4.40
2009,01,22,04,49,-4.40
2009,01,22,04,50,-4.40
2009,01,22,04,51,-4.40
2009,01,22,04,52,-4.40
2009,01,22,04,53,-4.40
2009,01,22,04,54,-4.40
2009,01,22,04,55,-4.40
2009,01,22,04,56,-4.40
2009,01,22,04,57,-4.40
2009,01,22,04,58,-4.40
2009,01,22,04,59,-4.50
2009,01,22,05,00,-4.50
2009,01,22,05,01,-4.50
2009,01,22,05,02,-4.50
2009,01,22,05,03,-4.50
2009,01,22,05,04,-4.50
2009,01,22,05,05,-4.60
2009,01,22,05,06,-4.60
2009,01,22,05,07,-4.60
2009,01,22,05,08,-4.60
2009,01,22,05,09,-4.60
2009,01,22,05,10,-4.60
2009,01,22,05,11,-4.60
2009,01,22,05,12,-4.60
2009,01,22,05,13,-4.60
2009,01,22,05,14,-4.60
2009,01,22,05,15,-4.60
2009,01,22,05,16,-4.60
2009,01,22,05,17,-4.60
2009,01,22,05,18,-4.60
2009,01,22,05,19,-4.60
2009,01,22,05,20,-4.60
2009,01,22,05,21,-4.60
2009,01,22,05,22,-4.60
2009,01,22,05,23,-4.60
2009,01,22,05,24,-4.60
2009,01,22,05,25,-4.60
2009,01,22,05,26,-4.60
2009,01,22,05,27,-4.60
2009,01,22,05,28,-4.60
2009,01,22,05,29,-4.60
2009,01,22,05,30,-4.70
2009,01,22,05,31,-4.70
2009,01,22,05,32,-4.70
2009,01,22,05,33,-4.70
2009,01,22,05,34,-4.70
2009,01,22,05,35,-4.70
2009,01,22,05,36,-4.70
2009,01,22,05,37,-4.70
2009,01,22,05,38,-4.70
2009,01,22,05,39,-4.70
2009,01,22,05,40,-4.70
2009,01,22,05,41,-4.70
2009,01,22,05,42,-4.70
2009,01,22,05,43,-4.70
2009,01,22,05,44,-4.70
2009,01,22,05,45,-4.70
2009,01,22,05,46,-4.80
2009,01,22,05,47,-4.80
2009,01,22,05,48,-4.80
2009,01,22,05,49,-4.80
2009,01,22,05,50,-4.80
2009,01,22,05,51,-4.80
2009,01,22,05,52,-4.80
2009,01,22,05,53,-4.70
2009,01,22,05,54,-4.70
2009,01,22,05,55,-4.70
2009,01,22,05,56,-4.70
2009,01,22,05,57,-4.70
2009,01,22,05,58,-4.70
2009,01,22,05,59,-4.70
2009,01,22,06,00,-4.60
2009,01,22,06,01,-4.60
2009,01,22,06,02,-4.60
2009,01,22,06,03,-4.60
2009,01,22,06,04,-4.60
2009,01,22,06,05,-4.50
2009,01,22,06,06,-4.50
2009,01,22,06,07,-4.50
2009,01,22,06,08,-4.50
2009,01,22,06,09,-4.50
2009,01,22,06,10,-4.50
2009,01,22,06,11,-4.50
2009,01,22,06,12,-4.50
2009,01,22,06,13,-4.50
2009,01,22,06,14,-4.50
2009,01,22,06,15,-4.50
2009,01,22,06,16,-4.50
2009,01,22,06,17,-4.50
2009,01,22,06,18,-4.50
2009,01,22,06,19,-4.50
2009,01,22,06,20,-4.50
2009,01,22,06,21,-4.60
2009,01,22,06,22,-4.50
2009,01,22,06,23,-4.50
2009,01,22,06,24,-4.50
2009,01,22,06,25,-4.50
2009,01,22,06,26,-4.50
2009,01,22,06,27,-4.50
2009,01,22,06,28,-4.50
2009,01,22,06,29,-4.50
2009,01,22,06,30,-4.50
2009,01,22,06,31,-4.40
2009,01,22,06,32,-4.40
2009,01,22,06,33,-4.40
2009,01,22,06,34,-4.40
2009,01,22,06,35,-4.40
2009,01,22,06,36,-4.40
2009,01,22,06,37,-4.30
2009,01,22,06,38,-4.30
2009,01,22,06,39,-4.30
2009,01,22,06,40,-4.30
2009,01,22,06,41,-4.30
2009,01,22,06,42,-4.20
2009,01,22,06,43,-4.20
2009,01,22,06,44,-4.20
2009,01,22,06,45,-4.20
2009,01,22,06,46,-4.10
2009,01,22,06,47,-4.10
2009,01,22,06,48,-4.10
2009,01,22,06,49,-4.10
2009,01,22,06,50,-4.10
2009,01,22,06,51,-4.10
2009,01,22,06,52,-4.10
2009,01,22,06,53,-4.00
2009,01,22,06,54,-4.00
2009,01,22,06,55,-4.00
2009,01,22,06,56,-4.00
2009,01,22,06,57,-4.00
2009,01,22,06,58,-4.00
2009,01,22,06,59,-4.00
2009,01,22,07,00,-4.00
2009,01,22,07,01,-4.00
2009,01,22,07,02,-4.00
2009,01,22,07,03,-4.00
2009,01,22,07,04,-4.00
2009,01,22,07,05,-4.00
2009,01,22,07,06,-3.90
2009,01,22,07,07,-3.90
2009,01,22,07,08,-3.90
2009,01,22,07,09,-3.90
2009,01,22,07,10,-3.90
2009,01,22,07,11,-3.90
2009,01,22,07,12,-3.90
2009,01,22,07,13,-3.90
2009,01,22,07,14,-3.90
2009,01,22,07,15,-3.80
2009,01,22,07,16,-3.80
2009,01,22,07,17,-3.80
2009,01,22,07,18,-3.80
2009,01,22,07,19,-3.80
2009,01,22,07,20,-3.80
2009,01,22,07,21,-3.80
2009,01,22,07,22,-3.80
2009,01,22,07,23,-3.80
2009,01,22,07,24,-3.80
2009,01,22,07,25,-3.80
2009,01,22,07,26,-3.80
2009,01,22,07,27,-3.80
2009,01,22,07,28,-3.70
2009,01,22,07,29,-3.70
2009,01,22,07,30,-3.70
2009,01,22,07,31,-3.70
2009,01,22,07,32,-3.70
2009,01,22,07,33,-3.70
2009,01,22,07,34,-3.70
2009,01,22,07,35,-3.70
2009,01,22,07,36,-3.70
2009,01,22,07,37,-3.70
2009,01,22,07,38,-3.70
2009,01,22,07,39,-3.70
2009,01,22,07,40,-3.70
2009,01,22,07,41,-3.70
2009,01,22,07,42,-3.60
2009,01,22,07,43,-3.60
2009,01,22,07,44,-3.60
2009,01,22,07,45,-3.60
2009,01,22,07,46,-3.60
2009,01,22,07,47,-3.60
2009,01,22,07,48,-3.60
2009,01,22,07,49,-3.60
2009,01,22,07,50,-3.60
2009,01,22,07,51,-3.60
2009,01,22,07,52,-3.60
2009,01,22,07,53,-3.60
2009,01,22,07,54,-3.60
2009,01,22,07,55,-3.60
2009,01,22,07,56,-3.60
2009,01,22,07,57,-3.60
2009,01,22,07,58,-3.60
2009,01,22,07,59,-3.60
2009,01,22,08,00,-3.50
2009,01,22,08,01,-3.50
2009,01,22,08,02,-3.50
2009,01,22,08,03,-3.50
2009,01,22,08,04,-3.50
2009,01,22,08,05,-3.50
2009,01,22,08,06,-3.50
2009,01,22,08,07,-3.50
2009,01,22,08,08,-3.50
2009,01,22,08,09,-3.50
2009,01,22,08,10,-3.50
2009,01,22,08,11,-3.50
2009,01,22,08,12,-3.50
2009,01,22,08,13,-3.50
2009,01,22,08,14,-3.50
2009,01,22,08,15,-3.50
2009,01,22,08,16,-3.50
2009,01,22,08,17,-3.50
2009,01,22,08,18,-3.40
2009,01,22,08,19,-3.40
2009,01,22,08,20,-3.50
2009,01,22,08,21,-3.40
2009,01,22,08,22,-3.40
2009,01,22,08,23,-3.50
2009,01,22,08,24,-3.50
2009,01,22,08,25,-3.50
2009,01,22,08,26,-3.50
2009,01,22,08,27,-3.50
2009,01,22,08,28,-3.50
2009,01,22,08,29,-3.40
2009,01,22,08,30,-3.50
2009,01,22,08,31,-3.50
2009,01,22,08,32,-3.50
2009,01,22,08,33,-3.50
2009,01,22,08,34,-3.40
2009,01,22,08,35,-3.40
2009,01,22,08,36,-3.40
2009,01,22,08,37,-3.50
2009,01,22,08,38,-3.40
2009,01,22,08,39,-3.40
2009,01,22,08,40,-3.40
2009,01,22,08,41,-3.40
2009,01,22,08,42,-3.40
2009,01,22,08,43,-3.40
2009,01,22,08,44,-3.40
2009,01,22,08,45,-3.40
2009,01,22,08,46,-3.40
2009,01,22,08,47,-3.40
2009,01,22,08,48,-3.40
2009,01,22,08,49,-3.40
2009,01,22,08,50,-3.40
2009,01,22,08,51,-3.40
2009,01,22,08,52,-3.40
2009,01,22,08,53,-3.40
2009,01,22,08,54,-3.40
2009,01,22,08,55,-3.40
2009,01,22,08,56,-3.40
2009,01,22,08,57,-3.40
2009,01,22,08,58,-3.40
2009,01,22,08,59,-3.40
2009,01,22,09,00,-3.40
2009,01,22,09,01,-3.40
2009,01,22,09,02,-3.40
2009,01,22,09,03,-3.40
2009,01,22,09,04,-3.40
2009,01,22,09,05,-3.40
2009,01,22,09,06,-3.50
2009,01,22,09,07,-3.50
2009,01,22,09,08,-3.50
2009,01,22,09,09,-3.50
2009,01,22,09,10,-3.50
2009,01,22,09,11,-3.50
2009,01,22,09,12,-3.50
2009,01,22,09,13,-3.50
2009,01,22,09,14,-3.50
2009,01,22,09,15,-3.50
2009,01,22,09,16,-3.50
2009,01,22,09,17,-3.50
2009,01,22,09,18,-3.50
2009,01,22,09,19,-3.50
2009,01,22,09,20,-3.50
2009,01,22,09,21,-3.50
2009,01,22,09,22,-3.50
2009,01,22,09,23,-3.60
2009,01,22,09,24,-3.50
2009,01,22,09,25,-3.50
2009,01,22,09,26,-3.50
2009,01,22,09,27,-3.50
2009,01,22,09,28,-3.50
2009,01,22,09,29,-3.50
2009,01,22,09,30,-3.50
2009,01,22,09,31,-3.50
2009,01,22,09,32,-3.50
2009,01,22,09,33,-3.50
2009,01,22,09,34,-3.50
2009,01,22,09,35,-3.50
2009,01,22,09,36,-3.50
2009,01,22,09,37,-3.50
2009,01,22,09,38,-3.50
2009,01,22,09,39,-3.50
2009,01,22,09,40,-3.50
2009,01,22,09,41,-3.50
2009,01,22,09,42,-3.50
2009,01,22,09,43,-3.50
2009,01,22,09,44,-3.50
2009,01,22,09,45,-3.50
2009,01,22,09,46,-3.40
2009,01,22,09,47,-3.40
2009,01,22,09,48,-3.40
2009,01,22,09,49,-3.40
2009,01,22,09,50,-3.40
2009,01,22,09,51,-3.40
2009,01,22,09,52,-3.40
2009,01,22,09,53,-3.40
2009,01,22,09,54,-3.40
2009,01,22,09,55,-3.40
2009,01,22,09,56,-3.40
2009,01,22,09,57,-3.40
2009,01,22,09,58,-3.40
2009,01,22,09,59,-3.40
2009,01,22,10,00,-3.40
2009,01,22,10,01,-3.40
2009,01,22,10,02,-3.40
2009,01,22,10,03,-3.40
2009,01,22,10,04,-3.40
2009,01,22,10,05,-3.40
2009,01,22,10,06,-3.40
2009,01,22,10,07,-3.40
2009,01,22,10,08,-3.40
2009,01,22,10,09,-3.40
2009,01,22,10,10,-3.40
2009,01,22,10,11,-3.40
2009,01,22,10,12,-3.40
2009,01,22,10,13,-3.30
2009,01,22,10,14,-3.30
2009,01,22,10,15,-3.30
2009,01,22,10,16,-3.30
2009,01,22,10,17,-3.30
2009,01,22,10,18,-3.30
2009,01,22,10,19,-3.30
2009,01,22,10,20,-3.20
2009,01,22,10,21,-3.20
2009,01,22,10,22,-3.20
2009,01,22,10,23,-3.20
2009,01,22,10,24,-3.20
2009,01,22,10,25,-3.20
2009,01,22,10,26,-3.20
2009,01,22,10,27,-3.20
2009,01,22,10,28,-3.20
2009,01,22,10,29,-3.10
2009,01,22,10,30,-3.10
2009,01,22,10,31,-3.10
2009,01,22,10,32,-3.10
2009,01,22,10,33,-3.10
2009,01,22,10,34,-3.10
2009,01,22,10,35,-3.00
2009,01,22,10,36,-3.00
2009,01,22,10,37,-3.00
2009,01,22,10,38,-3.00
2009,01,22,10,39,-3.00
2009,01,22,10,40,-3.00
2009,01,22,10,41,-3.00
2009,01,22,10,42,-3.00
2009,01,22,10,43,-3.00
2009,01,22,10,44,-3.00
2009,01,22,10,45,-3.00
2009,01,22,10,46,-3.00
2009,01,22,10,47,-3.00
2009,01,22,10,48,-3.00
2009,01,22,10,49,-3.00
2009,01,22,10,50,-3.00
2009,01,22,10,51,-3.00
2009,01,22,10,52,-3.00
2009,01,22,10,53,-2.90
2009,01,22,10,54,-2.90
2009,01,22,10,55,-2.90
2009,01,22,10,56,-2.90
2009,01,22,10,57,-2.90
2009,01,22,10,58,-2.90
2009,01,22,10,59,-2.90
2009,01,22,11,00,-2.90
2009,01,22,11,01,-2.90
2009,01,22,11,02,-2.80
2009,01,22,11,03,-2.80
2009,01,22,11,04,-2.80
2009,01,22,11,05,-2.80
2009,01,22,11,06,-2.80
2009,01,22,11,07,-2.70
2009,01,22,11,08,-2.60
2009,01,22,11,09,-2.60
2009,01,22,11,10,-2.50
2009,01,22,11,11,-2.50
2009,01,22,11,12,-2.40
2009,01,22,11,13,-2.40
2009,01,22,11,14,-2.30
2009,01,22,11,15,-2.20
2009,01,22,11,16,-2.20
2009,01,22,11,17,-2.10
2009,01,22,11,18,-2.10
2009,01,22,11,19,-2.00
2009,01,22,11,20,-2.00
2009,01,22,11,21,-2.00
2009,01,22,11,22,-2.00
2009,01,22,11,23,-2.00
2009,01,22,11,24,-1.90
2009,01,22,11,25,-1.90
2009,01,22,11,26,-1.90
2009,01,22,11,27,-1.80
2009,01,22,11,28,-1.80
2009,01,22,11,29,-1.80
2009,01,22,11,30,-1.80
2009,01,22,11,31,-1.70
2009,01,22,11,32,-1.70
2009,01,22,11,33,-1.70
2009,01,22,11,34,-1.60
2009,01,22,11,35,-1.60
2009,01,22,11,36,-1.60
2009,01,22,11,37,-1.60
2009,01,22,11,38,-1.60
2009,01,22,11,39,-1.60
2009,01,22,11,40,-1.60
2009,01,22,11,41,-1.60
2009,01,22,11,42,-1.60
2009,01,22,11,43,-1.60
2009,01,22,11,44,-1.60
2009,01,22,11,45,-1.60
2009,01,22,11,46,-1.60
2009,01,22,11,47,-1.60
2009,01,22,11,48,-1.60
2009,01,22,11,49,-1.60
2009,01,22,11,50,-1.60
2009,01,22,11,51,-1.60
2009,01,22,11,52,-1.60
2009,01,22,11,53,-1.70
2009,01,22,11,54,-1.70
2009,01,22,11,55,-1.70
2009,01,22,11,56,-1.80
2009,01,22,11,57,-1.80
2009,01,22,11,58,-1.80
2009,01,22,11,59,-1.80
2009,01,22,12,00,-1.90
2009,01,22,12,01,-1.90
2009,01,22,12,02,-1.90
2009,01,22,12,03,-1.80
2009,01,22,12,04,-1.80
2009,01,22,12,05,-1.80
2009,01,22,12,06,-1.80
2009,01,22,12,07,-1.80
2009,01,22,12,08,-1.80
2009,01,22,12,09,-1.80
2009,01,22,12,10,-1.80
2009,01,22,12,11,-1.80
2009,01,22,12,12,-1.80
2009,01,22,12,13,-1.80
2009,01,22,12,14,-1.70
2009,01,22,12,15,-1.70
2009,01,22,12,16,-1.60
2009,01,22,12,17,-1.60
2009,01,22,12,18,-1.50
2009,01,22,12,19,-1.50
2009,01,22,12,20,-1.40
2009,01,22,12,21,-1.40
2009,01,22,12,22,-1.40
2009,01,22,12,23,-1.40
2009,01,22,12,24,-1.40
2009,01,22,12,25,-1.30
2009,01,22,12,26,-1.30
2009,01,22,12,27,-1.30
2009,01,22,12,28,-1.30
2009,01,22,12,29,-1.30
2009,01,22,12,30,-1.30
2009,01,22,12,31,-1.30
2009,01,22,12,32,-1.30
2009,01,22,12,33,-1.30
2009,01,22,12,34,-1.30
2009,01,22,12,35,-1.30
2009,01,22,12,36,-1.20
2009,01,22,12,37,-1.30
2009,01,22,12,38,-1.30
2009,01,22,12,39,-1.30
2009,01,22,12,40,-1.30
2009,01,22,12,41,-1.30
2009,01,22,12,42,-1.30
2009,01,22,12,43,-1.30
2009,01,22,12,44,-1.30
2009,01,22,12,45,-1.30
2009,01,22,12,46,-1.30
2009,01,22,12,47,-1.30
2009,01,22,12,48,-1.30
2009,01,22,12,49,-1.30
2009,01,22,12,50,-1.30
2009,01,22,12,51,-1.30
2009,01,22,12,52,-1.30
2009,01,22,12,53,-1.30
2009,01,22,12,54,-1.30
2009,01,22,12,55,-1.30
2009,01,22,12,56,-1.30
2009,01,22,12,57,-1.30
2009,01,22,12,58,-1.30
2009,01,22,12,59,-1.30
2009,01,22,13,00,-1.30
2009,01,22,13,01,-1.20
2009,01,22,13,02,-1.20
2009,01,22,13,03,-1.20
2009,01,22,13,04,-1.20
2009,01,22,13,05,-1.20
2009,01,22,13,06,-1.20
2009,01,22,13,07,-1.10
2009,01,22,13,08,-1.10
2009,01,22,13,09,-1.10
2009,01,22,13,10,-1.10
2009,01,22,13,11,-1.10
2009,01,22,13,12,-1.10
2009,01,22,13,13,-1.10
2009,01,22,13,14,-1.00
2009,01,22,13,15,-1.00
2009,01,22,13,16,-1.00
2009,01,22,13,17,-0.90
2009,01,22,13,18,-0.90
2009,01,22,13,19,-0.90
2009,01,22,13,20,-0.90
2009,01,22,13,21,-0.90
2009,01,22,13,22,-0.90
2009,01,22,13,23,-0.90
2009,01,22,13,24,-0.90
2009,01,22,13,25,-0.90
2009,01,22,13,26,-0.90
2009,01,22,13,27,-0.90
2009,01,22,13,28,-0.90
2009,01,22,13,29,-0.90
2009,01,22,13,30,-0.90
2009,01,22,13,31,-0.90
2009,01,22,13,32,-1.00
2009,01,22,13,33,-1.00
2009,01,22,13,34,-1.00
2009,01,22,13,35,-1.10
2009,01,22,13,36,-1.10
2009,01,22,13,37,-1.10
2009,01,22,13,38,-1.10
2009,01,22,13,39,-1.10
2009,01,22,13,40,-1.10
2009,01,22,13,41,-1.10
2009,01,22,13,42,-1.10
2009,01,22,13,43,-1.10
2009,01,22,13,44,-1.10
2009,01,22,13,45,-1.20
2009,01,22,13,46,-1.20
2009,01,22,13,47,-1.10
2009,01,22,13,48,-1.10
2009,01,22,13,49,-1.10
2009,01,22,13,50,-1.10
2009,01,22,13,51,-1.10
2009,01,22,13,52,-1.10
2009,01,22,13,53,-1.10
2009,01,22,13,54,-1.00
2009,01,22,13,55,-1.00
2009,01,22,13,56,-1.00
2009,01,22,13,57,-0.90
2009,01,22,13,58,-0.90
2009,01,22,13,59,-0.90
2009,01,22,14,00,-0.90
2009,01,22,14,01,-0.80
2009,01,22,14,02,-0.80
2009,01,22,14,03,-0.80
2009,01,22,14,04,-0.80
2009,01,22,14,05,-0.90
2009,01,22,14,06,-0.90
2009,01,22,14,07,-0.90
2009,01,22,14,08,-0.90
2009,01,22,14,09,-0.90
2009,01,22,14,10,-0.90
2009,01,22,14,11,-0.90
2009,01,22,14,12,-0.90
2009,01,22,14,13,-0.90
2009,01,22,14,14,-0.90
2009,01,22,14,15,-0.90
2009,01,22,14,16,-0.90
2009,01,22,14,17,-0.90
2009,01,22,14,18,-0.90
2009,01,22,14,19,-0.90
2009,01,22,14,20,-0.90
2009,01,22,14,21,-0.90
2009,01,22,14,22,-0.90
2009,01,22,14,23,-0.90
2009,01,22,14,24,-0.80
2009,01,22,14,25,-0.80
2009,01,22,14,26,-0.80
2009,01,22,14,27,-0.80
2009,01,22,14,28,-0.80
2009,01,22,14,29,-0.80
2009,01,22,14,30,-0.80
2009,01,22,14,31,-0.80
2009,01,22,14,32,-0.80
2009,01,22,14,33,-0.80
2009,01,22,14,34,-0.80
2009,01,22,14,35,-0.80
2009,01,22,14,36,-0.90
2009,01,22,14,37,-0.90
2009,01,22,14,38,-0.90
2009,01,22,14,39,-0.90
2009,01,22,14,40,-0.90
2009,01,22,14,41,-0.90
2009,01,22,14,42,-0.90
2009,01,22,14,43,-0.90
2009,01,22,14,44,-0.90
2009,01,22,14,45,-0.90
2009,01,22,14,46,-0.90
2009,01,22,14,47,-0.90
2009,01,22,14,48,-0.90
2009,01,22,14,49,-0.90
2009,01,22,14,50,-0.90
2009,01,22,14,51,-0.90
2009,01,22,14,52,-0.90
2009,01,22,14,53,-0.90
2009,01,22,14,54,-0.90
2009,01,22,14,55,-0.90
2009,01,22,14,56,-0.90
2009,01,22,14,57,-0.90
2009,01,22,14,58,-0.90
2009,01,22,14,59,-0.90
2009,01,22,15,00,-0.90
2009,01,22,15,01,-0.90
2009,01,22,15,02,-0.80
2009,01,22,15,03,-0.80
2009,01,22,15,04,-0.80
2009,01,22,15,05,-0.80
2009,01,22,15,06,-0.90
2009,01,22,15,07,-0.90
2009,01,22,15,08,-0.90
2009,01,22,15,09,-0.90
2009,01,22,15,10,-0.90
2009,01,22,15,11,-0.90
2009,01,22,15,12,-0.90
2009,01,22,15,13,-0.90
2009,01,22,15,14,-0.90
2009,01,22,15,15,-1.00
2009,01,22,15,16,-1.00
2009,01,22,15,17,-1.00
2009,01,22,15,18,-1.00
2009,01,22,15,19,-1.00
2009,01,22,15,20,-1.00
2009,01,22,15,21,-1.10
2009,01,22,15,22,-1.10
2009,01,22,15,23,-1.10
2009,01,22,15,24,-1.10
2009,01,22,15,25,-1.00
2009,01,22,15,26,-1.10
2009,01,22,15,27,-1.00
2009,01,22,15,28,-1.00
2009,01,22,15,29,-1.10
2009,01,22,15,30,-1.10
2009,01,22,15,31,-1.10
2009,01,22,15,32,-1.10
2009,01,22,15,33,-1.10
2009,01,22,15,34,-1.10
2009,01,22,15,35,-1.10
2009,01,22,15,36,-1.10
2009,01,22,15,37,-1.10
2009,01,22,15,38,-1.10
2009,01,22,15,39,-1.10
2009,01,22,15,40,-1.20
2009,01,22,15,41,-1.20
2009,01,22,15,42,-1.20
2009,01,22,15,43,-1.20
2009,01,22,15,44,-1.20
2009,01,22,15,45,-1.20
2009,01,22,15,46,-1.20
2009,01,22,15,47,-1.20
2009,01,22,15,48,-1.20
2009,01,22,15,49,-1.20
2009,01,22,15,50,-1.30
2009,01,22,15,51,-1.30
2009,01,22,15,52,-1.30
2009,01,22,15,53,-1.30
2009,01,22,15,54,-1.20
2009,01,22,15,55,-1.20
2009,01,22,15,56,-1.20
2009,01,22,15,57,-1.20
2009,01,22,15,58,-1.20
2009,01,22,15,59,-1.20
2009,01,22,16,00,-1.20
2009,01,22,16,01,-1.20
2009,01,22,16,02,-1.20
2009,01,22,16,03,-1.20
2009,01,22,16,04,-1.20
2009,01,22,16,05,-1.20
2009,01,22,16,06,-1.20
2009,01,22,16,07,-1.20
2009,01,22,16,08,-1.20
2009,01,22,16,09,-1.20
2009,01,22,16,10,-1.20
2009,01,22,16,11,-1.20
2009,01,22,16,12,-1.20
2009,01,22,16,13,-1.20
2009,01,22,16,14,-1.20
2009,01,22,16,15,-1.20
2009,01,22,16,16,-1.20
2009,01,22,16,17,-1.20
2009,01,22,16,18,-1.20
2009,01,22,16,19,-1.20
2009,01,22,16,20,-1.20
2009,01,22,16,21,-1.20
2009,01,22,16,22,-1.20
2009,01,22,16,23,-1.20
2009,01,22,16,24,-1.20
2009,01,22,16,25,-1.20
2009,01,22,16,26,-1.20
2009,01,22,16,27,-1.20
2009,01,22,16,28,-1.20
2009,01,22,16,29,-1.30
2009,01,22,16,30,-1.30
2009,01,22,16,31,-1.30
2009,01,22,16,32,-1.30
2009,01,22,16,33,-1.30
2009,01,22,16,34,-1.30
2009,01,22,16,35,-1.30
2009,01,22,16,36,-1.30
2009,01,22,16,37,-1.30
2009,01,22,16,38,-1.30
2009,01,22,16,39,-1.30
2009,01,22,16,40,-1.30
2009,01,22,16,41,-1.40
2009,01,22,16,42,-1.40
2009,01,22,16,43,-1.40
2009,01,22,16,44,-1.40
2009,01,22,16,45,-1.40
2009,01,22,16,46,-1.40
2009,01,22,16,47,-1.40
2009,01,22,16,48,-1.40
2009,01,22,16,49,-1.40
2009,01,22,16,50,-1.40
2009,01,22,16,51,-1.40
2009,01,22,16,52,-1.40
2009,01,22,16,53,-1.40
2009,01,22,16,54,-1.40
2009,01,22,16,55,-1.40
2009,01,22,16,56,-1.40
2009,01,22,16,57,-1.40
2009,01,22,16,58,-1.40
2009,01,22,16,59,-1.40
2009,01,22,17,00,-1.40
2009,01,22,17,01,-1.40
2009,01,22,17,02,-1.40
2009,01,22,17,03,-1.40
2009,01,22,17,04,-1.40
2009,01,22,17,05,-1.40
2009,01,22,17,06,-1.40
2009,01,22,17,07,-1.40
2009,01,22,17,08,-1.40
2009,01,22,17,09,-1.40
2009,01,22,17,10,-1.30
2009,01,22,17,11,-1.30
2009,01,22,17,12,-1.30
2009,01,22,17,13,-1.30
2009,01,22,17,14,-1.30
2009,01,22,17,15,-1.30
2009,01,22,17,16,-1.30
2009,01,22,17,17,-1.30
2009,01,22,17,18,-1.30
2009,01,22,17,19,-1.30